[[{"header":{"parameterUnit":"m.s-1","parameterCategory":1,"la1":30.2992,"la2":30.254,"lo1":-89.0895,"lo2":-89.0443,"dy":0.0025,"dx":0.0025,"nx":19,"ny":19,"refTime":"2026-04-04T21:00:00:Z","depth":0,"parameterNumber":2,"parameterNumberName":"U-component_of_WINDS"},"data":[0,0,0,0.4954,0.4954,0.4926,0.4925,0.4885,0.4885,0,0,0,0,0,0,0,0,0,0,0,0.4962,0.4961,0.4954,0.4954,0.4926,0.4925,0.4886,0.4885,0,0,0,0,0,0,0,0,0,0,0,0.4962,0.4961,0.4961,0.4954,0.4926,0.4925,0.4886,0.4908,0,0,0,0,0,0,0,0,0,0,0.4936,0.4942,0.4961,0.4961,0.4953,0.4926,0.4925,0.4909,0.4907,0.4897,0,0.4889,0,0.4887,0.4882,0.4882,0,0,0,0.4954,0.4944,0.4938,0.4961,0.4953,0.4926,0.4938,0.4908,0.4905,0.4894,0.4889,0.4888,0.4886,0.4882,0.4882,0.4829,0.4829,0,0,0.4956,0.4956,0.494,0.4936,0.4941,0.4939,0.4937,0.4906,0.49,0.4889,0.4887,0.4885,0.4882,0.4881,0.4829,0.4829,0,0,0,0.496,0.4957,0.4951,0.4937,0.4933,0.4938,0.4936,0.4902,0.49,0.4886,0.4885,0.4882,0.4881,0.483,0.4829,0.4817,0,0,0,0.4961,0.4959,0.4952,0.4951,0.4933,0.4917,0.4933,0.4902,0.4899,0.4885,0.4882,0.4881,0.483,0.4829,0.4818,0.481,0,0,0,0.4964,0.4959,0.4955,0.4951,0.494,0.4918,0.4914,0.4901,0.4898,0.4882,0.4881,0.483,0.483,0.4818,0.4811,0.4796,0,0,0,0.4966,0.4943,0.4955,0.4929,0.494,0.4911,0.4914,0.4892,0.4877,0.4881,0.483,0.4829,0.4819,0.4812,0.4797,0.4783,0.4777,0,0,0.4937,0.494,0.4924,0.4934,0.4903,0.4915,0.4881,0.4867,0.4865,0.4841,0.484,0.4817,0.4811,0.4796,0.4746,0.4742,0,0,0,0.4915,0.4904,0.4896,0.4882,0.4872,0.4862,0.4854,0.4848,0.4828,0.4853,0.4808,0.4804,0.4795,0.4788,0.4785,0.4776,0.4826,0.4826,0.4827,0.4872,0.4872,0.4847,0.4844,0.4831,0.4823,0.4811,0.4803,0.4805,0.4795,0.4787,0.4757,0.4749,0.4746,0.4738,0.4781,0.478,0.478,0.478,0.4829,0.4813,0.4819,0.4796,0.4796,0.4776,0.4767,0.477,0.4751,0.4763,0.4755,0.4767,0.4741,0.4734,0.4779,0.478,0.478,0.478,0.478,0.48,0.4792,0.4788,0.4769,0.4754,0.4752,0.4734,0.4734,0.4734,0.4726,0.4718,0.4718,0.4718,0.4723,0.4723,0.4722,0.4722,0.4722,0.4722,0.4771,0.4767,0.4752,0.474,0.4732,0.4722,0.4714,0.4705,0.4696,0.4697,0.4697,0.4701,0.474,0.4749,0.4721,0.4721,0.4721,0.4721,0.4721,0.4725,0.4736,0.4714,0.4706,0.4692,0.4678,0.4679,0.4662,0.4655,0.4646,0.4652,0.4681,0.4683,0.4686,0.4693,0.4652,0.4652,0.4652,0.4652,0.47,0.4702,0.468,0.4667,0.4655,0.4654,0.4628,0.4622,0.4617,0.4612,0.4619,0.4629,0.4632,0.4632,0.4637,0.4644,0.4591,0.4591,0.4591,0.4671,0.4673,0.465,0.4648,0.4637,0.4628,0.4603,0.4587,0.4584,0.4588,0.4609,0.4611,0.4628,0.4634,0.4637,0.4644,0.4657,0,0]},{"header":{"parameterUnit":"m.s-1","parameterCategory":1,"la1":30.2992,"la2":30.254,"lo1":-89.0895,"lo2":-89.0443,"dy":0.0025,"dx":0.0025,"nx":19,"ny":19,"refTime":"2026-04-04T21:00:00:Z","depth":0,"parameterNumber":3,"parameterNumberName":"V-component_of_WINDS"},"data":[0,0,0,2.1739,2.1742,2.1856,2.1857,2.1996,2.1997,0,0,0,0,0,0,0,0,0,0,0,2.17,2.1701,2.1739,2.1742,2.1856,2.1857,2.1996,2.1997,0,0,0,0,0,0,0,0,0,0,0,2.1699,2.17,2.1701,2.1742,2.1856,2.1857,2.1996,2.1912,0,0,0,0,0,0,0,0,0,0,2.1802,2.176,2.17,2.1701,2.1743,2.1856,2.1857,2.1908,2.1917,2.1941,0,2.1959,0,2.198,2.2006,2.2007,0,0,0,2.1746,2.1752,2.1788,2.1701,2.1744,2.1856,2.1806,2.1913,2.1924,2.1953,2.1961,2.1967,2.1983,2.2007,2.2008,2.2128,2.2128,0,0,2.174,2.1717,2.1781,2.1794,2.1775,2.1802,2.1809,2.192,2.1928,2.1962,2.197,2.1985,2.2008,2.2009,2.2128,2.2128,0,0,0,2.1719,2.1713,2.1746,2.1789,2.181,2.1805,2.1814,2.1923,2.1936,2.1972,2.1987,2.2009,2.201,2.2127,2.2128,2.2124,0,0,0,2.1715,2.17,2.1743,2.1731,2.1807,2.1867,2.1814,2.1928,2.1941,2.1986,2.2009,2.2012,2.2127,2.2128,2.2123,2.2126,0,0,0,2.1694,2.1698,2.1713,2.1729,2.1777,2.1866,2.1885,2.1931,2.195,2.2007,2.2012,2.2127,2.2127,2.2123,2.2125,2.2153,0,0,0,2.1665,2.1706,2.1712,2.1764,2.1776,2.1862,2.1885,2.195,2.1998,2.2009,2.2127,2.2128,2.2122,2.2124,2.2152,2.2173,2.2179,0,0,2.1704,2.171,2.1742,2.1751,2.183,2.1846,2.1926,2.1991,2.2017,2.209,2.2093,2.2123,2.2125,2.2153,2.2219,2.2223,0,0,0,2.1747,2.177,2.1796,2.1841,2.1892,2.1937,2.1993,2.2018,2.2081,2.205,2.2141,2.2143,2.216,2.2171,2.2175,2.2192,2.2131,2.2131,2.2131,2.1769,2.1801,2.1858,2.1905,2.1948,2.2007,2.2046,2.209,2.2108,2.213,2.2152,2.2188,2.22,2.2203,2.2221,2.2164,2.2164,2.2164,2.2164,2.183,2.1869,2.1895,2.196,2.1995,2.205,2.2109,2.2121,2.2179,2.2173,2.219,2.2182,2.2207,2.2225,2.2164,2.2164,2.2164,2.2164,2.2164,2.1849,2.1873,2.1903,2.1974,2.2025,2.2071,2.2126,2.2156,2.2184,2.2201,2.2229,2.2229,2.2235,2.2212,2.2212,2.2212,2.2212,2.2212,2.2212,2.1857,2.1891,2.1933,2.1993,2.2028,2.2077,2.2138,2.2174,2.2221,2.2238,2.2239,2.2257,2.2203,2.219,2.2214,2.2214,2.2214,2.2214,2.2213,2.1909,2.1902,2.1967,2.2002,2.2077,2.2128,2.2165,2.2235,2.2269,2.2296,2.2312,2.2266,2.2274,2.2272,2.2261,2.2303,2.2303,2.2303,2.2303,2.1925,2.1933,2.2008,2.2062,2.2118,2.216,2.2236,2.2286,2.2336,2.236,2.2358,2.2346,2.2342,2.2353,2.2348,2.2339,2.24,2.24,2.24,2.196,2.1975,2.2032,2.2081,2.2143,2.2196,2.227,2.2333,2.2389,2.2405,2.238,2.2376,2.2357,2.2349,2.2363,2.2355,2.2339,0,0]}]]